Location: Unspecified
(41.1637°N, 24.2901°E)
Time: 17:30:56
(UTC+01:00)

ISS - Pass Details

Date: 20 February 2024
Orbit: 414 x 422 km, 51.6° (Epoch: 04 March)

Event Time Altitude Azimuth Distance (km) Brightness Sun altitude
Exits shadow 05:15:52 18° 281° (W) 1,126 -2.2 -11.2°
Maximum altitude 05:17:50 31° 334° (NNW) 762 -2.7 -10.8°
Drops below altitude 10° 05:20:55 10° 40° (NE) 1,515 -0.5 -10.2°
Sets 05:23:11 0° 50° (NE) 2,383 0.8 -9.8°
